Rochester, NH

9:39 AM EDT on April 28, 2017 (GMT -0400)
Skyhaven

Weather History for KDAW - August, 2013

Change the Weather History Date:

Tuesday, August 20, 2013

  Actual Average (KPSM) Record (KPSM)
Temperature  
Mean Temperature 72 °F -  
Max Temperature 86 °F 78 °F 95 °F (1983)
Min Temperature 59 °F 59 °F 43 °F (1976)
Cooling Degree Days 6    
Growing Degree Days 22 (Base 50)    
Moisture  
Dew Point 60 °F    
Average Humidity 67    
Maximum Humidity 93    
Minimum Humidity 40    
Precipitation  
Precipitation 0.00 in - - ()
Sea Level Pressure  
Sea Level Pressure 30.02 in    
Wind  
Wind Speed 2 mph (NW)    
Max Wind Speed 7 mph    
Max Gust Speed -    
Visibility 10 miles    
Events      
Averages and records for this station are not official NWS values.
T = Trace of Precipitation, MM = Missing Value Source: NWS Daily Summary

Daily Weather History Graph

Daily Weather History Graph

Search for Another Location

Airport or City:

Trip Planner

Search our weather history database for the weather conditions in past years. The results will help you decide how hot, cold, wet, or windy it might be!

Date:

Astronomy

Aug. 20, 2013 Rise Set
Actual Time 5:54 AM EDT 7:38 PM EDT
Civil Twilight 5:24 AM EDT 8:08 PM EDT
Nautical Twilight 4:47 AM EDT 8:45 PM EDT
Astronomical Twilight 4:07 AM EDT 9:24 PM EDT
Moon 7:06 PM EDT (8/20) 5:21 AM EDT (8/20)
Length of Visible Light 14h 44m
Length of Day
13h 43m
Full, 100% of the Moon is Illuminated
Aug 20
Full
Aug 20
Full
Aug 28
Last Quarter
Sep 5
New
Sep 12
First Quarter

Hourly Weather History & Observations

Time (EDT) Temp. Heat Index Dew Point Humidity Pressure Visibility Wind Dir Wind Speed Gust Speed Precip Events Conditions
12:51 AM 63.0 °F - 59.0 °F 87% 29.95 in 10.0 mi Calm Calm - N/A   Clear
1:51 AM 63.0 °F - 59.0 °F 87% 29.96 in 10.0 mi Calm Calm - N/A   Clear
2:51 AM 64.9 °F - 59.0 °F 81% 29.96 in 10.0 mi Calm Calm - N/A   Clear
3:51 AM 62.1 °F - 57.9 °F 86% 29.97 in 10.0 mi WNW 3.5 mph - N/A   Clear
4:51 AM 59.0 °F - 57.0 °F 93% 29.99 in 8.0 mi NW 3.5 mph - N/A   Clear
5:51 AM 62.1 °F - 57.9 °F 86% 30.00 in 9.0 mi NW 6.9 mph - N/A   Clear
6:51 AM 61.0 °F - 57.9 °F 90% 30.02 in 9.0 mi Calm Calm - N/A   Clear
7:51 AM 66.0 °F - 60.1 °F 81% 30.03 in 10.0 mi Calm Calm - N/A   Clear
8:51 AM 71.1 °F - 61.0 °F 70% 30.04 in 10.0 mi WNW 5.8 mph - N/A   Clear
9:51 AM 77.0 °F - 62.1 °F 60% 30.05 in 10.0 mi Variable 3.5 mph - N/A   Clear
10:51 AM 80.1 °F 81.1 °F 61.0 °F 52% 30.05 in 10.0 mi Variable 3.5 mph - N/A   Clear
11:51 AM 81.0 °F 81.7 °F 61.0 °F 50% 30.05 in 10.0 mi Variable 3.5 mph - N/A   Clear
12:51 PM 82.9 °F 83.3 °F 61.0 °F 47% 30.04 in 10.0 mi Calm Calm - N/A   Clear
1:51 PM 84.0 °F 83.5 °F 57.9 °F 41% 30.03 in 10.0 mi Calm Calm - N/A   Clear
2:51 PM 84.9 °F 84.2 °F 57.9 °F 40% 30.01 in 10.0 mi Variable 4.6 mph - N/A   Partly Cloudy
3:51 PM 84.0 °F 83.5 °F 57.9 °F 41% 30.02 in 10.0 mi Variable 5.8 mph - N/A   Partly Cloudy
4:51 PM 84.0 °F 83.5 °F 57.9 °F 41% 30.02 in 10.0 mi Variable 5.8 mph - N/A   Clear
5:51 PM 82.9 °F 82.6 °F 57.9 °F 42% 30.03 in 10.0 mi WNW 4.6 mph - N/A   Clear
6:51 PM 81.0 °F 81.6 °F 60.1 °F 49% 30.04 in 10.0 mi Calm Calm - N/A   Clear
7:51 PM 75.9 °F - 60.1 °F 58% 30.04 in 10.0 mi Calm Calm - N/A   Clear
8:51 PM 71.1 °F - 62.1 °F 73% 30.06 in 10.0 mi Calm Calm - N/A   Clear
9:51 PM 69.1 °F - 62.1 °F 78% 30.07 in 10.0 mi Calm Calm - N/A   Clear
10:51 PM 66.9 °F - 61.0 °F 81% 30.07 in 10.0 mi Calm Calm - N/A   Clear
11:51 PM 64.0 °F - 60.1 °F 87% 30.07 in 10.0 mi Calm Calm - N/A   Clear